Location: Kitt Peak
(31.9633°N, 111.6000°W)
Time: 23:30:34
(UTC-07:00)

Amateur Radio Satellites - All Passes

Search period start: 04 March 2015 23:00
Search period end: 05 March 2015 23:00
Location: Kitt Peak, 31.9633°N, 111.6000°W

Satellite Date Start Highest point End Downlink Frequencies (MHz)
Time Altitude Azimuth
VELOX 1 04 Mar 23:02:52 23:07:04 39° 262° (W) 23:11:16 145.980
FUNcube-1 04 Mar 23:03:41 23:06:03 14° 267° (W) 23:08:10 145.935
ZACube-1 04 Mar 23:06:09 23:08:15 13° 268° (W) 23:10:04 437.345
TISAT 1 04 Mar 23:08:46 23:11:34 18° 71° (ENE) 23:14:31 437.305
UKube-1 04 Mar 23:08:59 23:11:07 13° 268° (W) 23:13:00 .
SPROUT 04 Mar 23:13:03 23:16:22 22° 72° (ENE) 23:19:47 437.525
GONETS M04 04 Mar 23:22:23 23:29:47 29° 287° (WNW) 23:36:56
ESTCUBE 1 04 Mar 23:27:30 23:31:50 46° 261° (W) 23:36:12 437.505/2401.250
DANDE 04 Mar 23:28:22 23:34:53 41° 97° (E) 23:40:01 436.750
BUGSAT 1 04 Mar 23:28:48 23:32:53 62° 100° (E) 23:36:54 437.445
QB50P1 04 Mar 23:31:07 23:35:21 84° 283° (WNW) 23:39:33 145.935-145.965
QB50P2 04 Mar 23:35:51 23:40:04 72° 283° (WNW) 23:44:15 145.880/145.840
UNISAT 6 04 Mar 23:41:22 23:45:16 33° 286° (WNW) 23:49:09 437.425
CUSAT 1 04 Mar 23:43:48 23:50:22 70° 98° (E) 23:55:18 437.405
SO-50 04 Mar 23:46:02 23:47:27 12° 108° (ESE) 23:49:11 436.795
VERMONT LUNAR 04 Mar 23:47:29 23:48:47 11° 220° (SW) 23:49:57 437.305
DUCHIFAT 1 04 Mar 23:48:51 23:52:56 50° 285° (WNW) 23:56:59 145.980
JUGNU 04 Mar 23:59:46 00:02:39 14° 165° (SSE) 00:05:39 437.505
BEESAT 05 Mar 00:04:06 00:05:25 11° 67° (ENE) 00:07:03 436.000
TIGRISAT 05 Mar 00:06:03 00:09:03 18° 289° (WNW) 00:11:55 435.000
PHONESAT 2.4 05 Mar 00:07:41 00:10:21 19° 218° (SW) 00:12:57 2401.200-2431.200
POPSAT HIP 1 05 Mar 00:11:43 00:15:18 26° 287° (WNW) 00:18:46 437.405
POLYITAN 1 05 Mar 00:12:31 00:16:03 25° 288° (WNW) 00:19:28 437.675
ANTELSAT 05 Mar 00:22:15 00:23:58 12° 291° (WNW) 00:25:27 437.575/2403.000
ITUPSAT 1 05 Mar 00:30:35 00:34:13 23° 70° (ENE) 00:38:00 437.325
NANOSAT C BR1 05 Mar 00:34:56 00:37:22 15° 290° (WNW) 00:39:36 145.865
TISAT 1 05 Mar 00:43:24 00:47:11 30° 263° (W) 00:50:57 437.305
SPROUT 05 Mar 00:48:48 00:52:22 24° 264° (W) 00:55:51 437.525
RS-15 05 Mar 01:01:04 01:10:23 30° 316° (NW) 01:19:32 29.354- 29.394
DANDE 05 Mar 01:12:48 01:18:09 23° 282° (WNW) 01:22:22 436.750
SO-50 05 Mar 01:23:05 01:27:33 55° 301° (WNW) 01:32:10 436.795
BEESAT 3 05 Mar 01:23:58 01:27:00 20° 53° (NE) 01:30:05 437.485
SWISSCUBE 05 Mar 01:29:55 01:34:40 69° 258° (WSW) 01:39:27 437.505
CUSAT 1 05 Mar 01:31:22 01:33:12 11° 285° (WNW) 01:34:30 437.405
YUBILEINY 05 Mar 01:36:24 01:37:35 11° 62° (ENE) 01:39:43 435.215
BEESAT 05 Mar 01:38:07 01:42:50 61° 259° (W) 01:47:34 436.000
JUGNU 05 Mar 01:46:34 01:51:05 23° 173° (S) 01:55:40 437.505
BEESAT 2 05 Mar 01:51:49 01:55:36 34° 57° (ENE) 01:59:22 435.950
SRMSAT 05 Mar 01:53:57 01:57:29 16° 166° (SSE) 02:01:05 437.500
Gurwin Techsat 1B 05 Mar 02:00:09 02:03:50 20° 93° (E) 02:07:43 435.225
AIST 2 05 Mar 02:04:13 02:07:05 18° 52° (NE) 02:10:02 435.215
Oscar 19 05 Mar 02:07:47 02:12:54 74° 285° (WNW) 02:18:01 437.125/150
ITUPSAT 1 05 Mar 02:07:49 02:12:00 29° 264° (W) 02:16:07 437.325
ITAMSAT 1 05 Mar 02:12:09 02:16:52 35° 97° (E) 02:21:38 435.822/435.867
KKS-1 05 Mar 02:44:52 02:49:17 60° 259° (W) 02:53:43 437.445
STARS 05 Mar 02:45:09 02:49:35 84° 77° (ENE) 02:54:02 437.465
BEESAT 3 05 Mar 03:01:35 03:05:06 27° 248° (WSW) 03:08:31 437.485
JAS-2 05 Mar 03:07:08 03:08:30 11° 86° (E) 03:10:40 435.910
HORYU 2 05 Mar 03:09:21 03:12:48 22° 95° (E) 03:16:21 437.375
AO-7 05 Mar 03:19:28 03:25:15 22° 94° (E) 03:31:26 29.400- 29.500
YUBILEINY 05 Mar 03:27:26 03:36:18 74° 82° (E) 03:45:06 435.215
BEESAT 2 05 Mar 03:31:02 03:33:31 15° 250° (WSW) 03:35:50 435.950
JUGNU 05 Mar 03:34:51 03:39:35 25° 183° (S) 03:44:19 437.505
Gurwin Techsat 1B 05 Mar 03:39:02 03:44:00 40° 287° (WNW) 03:48:54 435.225
SRMSAT 05 Mar 03:41:22 03:46:06 24° 175° (S) 03:50:51 437.500
AIST 2 05 Mar 03:41:59 03:45:49 34° 247° (WSW) 03:49:34 435.215
ITAMSAT 1 05 Mar 03:52:10 03:56:11 22° 291° (WNW) 04:00:03 435.822/435.867
MOZHAYETS 4 05 Mar 04:15:12 04:19:36 52° 75° (ENE) 04:24:04
AUBIESAT-1 05 Mar 04:18:22 04:21:38 72° 254° (WSW) 04:25:02 437.475
M-CUBED/EXP-1 PRIME 05 Mar 04:18:46 04:22:01 59° 255° (WSW) 04:25:22 437.505
PCSat 05 Mar 04:24:38 04:25:46 11° 47° (NE) 04:27:13 145.827
HORYU 2 05 Mar 04:45:44 04:49:25 25° 288° (WNW) 04:53:01 437.375
JAS-2 05 Mar 04:46:55 04:54:36 77° 101° (ESE) 05:02:29 435.910
AO-7 05 Mar 05:10:28 05:18:40 66° 289° (WNW) 05:26:48 29.400- 29.500
JUGNU 05 Mar 05:24:13 05:28:04 17° 193° (SSW) 05:31:49 437.505
YUBILEINY 05 Mar 05:26:36 05:32:21 18° 276° (W) 05:37:33 435.215
SRMSAT 05 Mar 05:30:02 05:34:46 24° 185° (S) 05:39:28 437.500
RS-15 05 Mar 05:43:04 05:48:12 14° 27° (NNE) 05:54:02 29.354- 29.394
MOZHAYETS 4 05 Mar 05:55:52 05:57:13 11° 270° (W) 05:58:15
STRAND 1 05 Mar 05:56:18 06:00:38 29° 71° (ENE) 06:05:05 437.568
PRISM 05 Mar 05:56:43 06:00:40 47° 75° (ENE) 06:04:42 437.425
Cubesat XI-IV 05 Mar 06:00:02 06:04:34 29° 96° (E) 06:09:11 437.490
AIST 1 05 Mar 06:00:49 06:02:33 13° 88° (E) 06:04:33
PCSat 05 Mar 06:04:37 06:10:03 88° 62° (ENE) 06:15:28 145.827
CUTE-I 05 Mar 06:07:59 06:12:47 34° 97° (E) 06:17:37 437.470
CUBESAT XI-V 05 Mar 06:21:36 06:26:17 89° 261° (W) 06:31:01 437.345
JAS-2 05 Mar 06:33:45 06:39:01 20° 294° (WNW) 06:44:02 435.910
ISS 05 Mar 06:52:43 06:55:23 25° 130° (SE) 06:58:07 145.825
AO-7 05 Mar 07:08:03 07:10:10 11° 305° (NW) 07:11:39 29.400- 29.500
SRMSAT 05 Mar 07:19:53 07:23:23 16° 194° (SSW) 07:26:47 437.500
STRAND 1 05 Mar 07:35:32 07:39:50 26° 264° (W) 07:44:01 437.568
AIST 1 05 Mar 07:35:49 07:39:54 38° 280° (W) 07:44:00
Cubesat XI-IV 05 Mar 07:40:02 07:44:37 28° 290° (WNW) 07:49:04 437.490
GONETS M04 05 Mar 07:42:14 07:47:34 18° 67° (ENE) 07:53:27
CUTE-I 05 Mar 07:48:25 07:52:42 24° 291° (WNW) 07:56:50 437.470
RS-15 05 Mar 07:53:15 08:04:21 52° 55° (NE) 08:16:00 29.354- 29.394
O/OREOS (USA 219) 05 Mar 07:54:06 07:57:03 18° 102° (ESE) 08:00:11 437.305
COMPASS 1 05 Mar 08:21:54 08:22:59 11° 91° (E) 08:24:20 437.405
ISS 05 Mar 08:29:11 08:31:46 21° 323° (NW) 08:34:18 145.825
GOMX 1 05 Mar 08:45:09 08:49:04 36° 97° (E) 08:52:54 467.674
SEEDS 05 Mar 08:51:12 08:55:03 34° 97° (E) 08:58:56 437.485
CINEMA 3 05 Mar 08:54:09 08:56:20 14° 93° (E) 08:58:43 145.822/145.860
BRITE-PL 05 Mar 08:54:53 08:59:16 82° 101° (ESE) 09:03:26 437.365/2234.400
CANX-2 05 Mar 08:58:49 09:03:01 59° 100° (E) 09:07:14 2200.000
DOVE 4 05 Mar 09:06:08 09:10:07 43° 98° (E) 09:14:04 437.250
DELFI C3 05 Mar 09:07:26 09:08:36 11° 91° (E) 09:10:03 145.870
HO-68 05 Mar 09:10:05 09:17:16 71° 103° (ESE) 09:24:26 435.675
CUTE 1.7 + AOD 2 05 Mar 09:16:56 09:21:12 90° 5° (N) 09:25:29 437.475
ZACube-1 05 Mar 09:23:43 09:24:30 11° 91° (E) 09:25:37 437.345
TIGRISAT 05 Mar 09:24:14 09:26:43 16° 71° (ENE) 09:29:22 435.000
O/OREOS (USA 219) 05 Mar 09:32:08 09:36:15 32° 295° (WNW) 09:40:22 437.305
GONETS M04 05 Mar 09:36:41 09:45:27 77° 266° (W) 09:54:13
ANTELSAT 05 Mar 09:38:27 09:41:54 24° 72° (ENE) 09:45:25 437.575/2403.000
UWE-3 05 Mar 09:47:04 09:50:39 28° 97° (E) 09:54:18 435.000/436.395/437.385
NANOSAT C BR1 05 Mar 09:47:16 09:49:40 15° 70° (ENE) 09:52:15 145.865
AAUSAT CUBESAT 2 05 Mar 09:49:53 09:54:02 60° 284° (WNW) 09:58:10 437.432
COMPASS 1 05 Mar 09:54:57 09:58:58 44° 285° (WNW) 10:02:58 437.405
SO-50 05 Mar 09:59:14 10:03:47 36° 56° (NE) 10:08:19 436.795
Oscar 11 05 Mar 10:03:44 10:08:05 84° 101° (E) 10:12:25 145.826/435.025
50 SAT 05 Mar 10:05:28 10:06:17 11° 91° (E) 10:07:23 437.505
RS-15 05 Mar 10:06:03 10:16:39 41° 251° (WSW) 10:27:21 29.354- 29.394
BUGSAT 1 05 Mar 10:14:39 10:18:01 24° 72° (ENE) 10:21:29 437.445
QB50P1 05 Mar 10:19:14 10:23:10 37° 74° (ENE) 10:27:09 145.935-145.965
QB50P2 05 Mar 10:24:01 10:28:05 44° 75° (ENE) 10:32:10 145.880/145.840
GOMX 1 05 Mar 10:24:47 10:26:56 13° 291° (WNW) 10:28:51 467.674
SEEDS 05 Mar 10:28:03 10:30:37 15° 289° (WNW) 10:33:02 437.485
CUSAT 1 05 Mar 10:29:20 10:30:57 15° 78° (ENE) 10:32:45 437.405
CINEMA 3 05 Mar 10:29:59 10:33:43 32° 286° (WNW) 10:37:24 145.822/145.860
CUBEBUG 2 05 Mar 10:30:24 10:34:31 62° 284° (WNW) 10:38:40 437.445
DX 1 05 Mar 10:33:09 10:37:32 79° 103° (ESE) 10:41:52 434.975-435.025
UNISAT 6 05 Mar 10:35:10 10:39:35 69° 259° (W) 10:43:54 437.425
DUCHIFAT 1 05 Mar 10:36:16 10:40:29 61° 76° (ENE) 10:44:42 145.980
HUMSAT D 05 Mar 10:36:54 10:40:51 45° 99° (E) 10:44:51 437.325/437.525
DELFI C3 05 Mar 10:40:11 10:44:03 40° 285° (WNW) 10:47:53 145.870
CUBEBUG 1 05 Mar 10:44:50 10:47:15 15° 92° (E) 10:49:51 437.445
DOVE 4 05 Mar 10:46:12 10:47:34 11° 291° (WNW) 10:48:40 437.250
AISAT 05 Mar 10:50:12 10:54:28 46° 99° (E) 10:58:43 437.250
FUNcube-1 05 Mar 10:54:48 10:58:49 48° 284° (WNW) 11:02:51 145.935
ZACube-1 05 Mar 10:57:12 11:01:11 44° 285° (WNW) 11:05:10 437.345
VELOX 1 05 Mar 10:58:12 11:02:34 56° 101° (E) 11:06:54 145.980
POPSAT HIP 1 05 Mar 10:58:58 11:03:14 68° 259° (WSW) 11:07:30 437.405
UKube-1 05 Mar 10:59:00 11:03:14 51° 285° (WNW) 11:07:25 .
TIGRISAT 05 Mar 10:59:11 11:03:15 35° 262° (W) 11:07:14 435.000
HO-68 05 Mar 10:59:35 11:04:24 19° 297° (WNW) 11:08:52 435.675
POLYITAN 1 05 Mar 11:00:01 11:04:17 64° 259° (W) 11:08:32 437.675
ANTELSAT 05 Mar 11:15:08 11:18:40 23° 264° (W) 11:22:03 437.575/2403.000
NANOSAT C BR1 05 Mar 11:21:20 11:25:17 35° 262° (W) 11:29:12 145.865
UWE-3 05 Mar 11:24:12 11:27:02 17° 289° (WNW) 11:29:44 435.000/436.395/437.385
ESTCUBE 1 05 Mar 11:25:02 11:29:30 53° 100° (E) 11:33:56 437.505/2401.250
50 SAT 05 Mar 11:37:48 11:41:31 39° 285° (WNW) 11:45:13 437.505
SO-50 05 Mar 11:40:23 11:44:08 21° 249° (WSW) 11:47:43 436.795
BUGSAT 1 05 Mar 11:50:04 11:53:27 22° 265° (W) 11:56:45 437.445
QB50P1 05 Mar 11:56:56 11:59:15 14° 268° (W) 12:01:20 145.935-145.965
DANDE 05 Mar 12:00:03 12:01:54 17° 264° (W) 12:03:46 436.750
QB50P2 05 Mar 12:02:38 12:04:16 12° 269° (W) 12:05:37 145.880/145.840
HUMSAT D 05 Mar 12:15:07 12:16:18 11° 291° (WNW) 12:17:14 437.325/437.525
CUBEBUG 1 05 Mar 12:19:46 12:23:48 36° 286° (WNW) 12:27:45 437.445
AISAT 05 Mar 12:28:42 12:30:44 13° 292° (WNW) 12:32:31 437.250
TISAT 1 05 Mar 12:32:33 12:36:43 61° 101° (E) 12:40:51 437.305
VELOX 1 05 Mar 12:37:46 12:38:43 10° 292° (WNW) 12:39:23 145.980
SPROUT 05 Mar 12:39:31 12:43:50 86° 105° (ESE) 12:48:06 437.525
ESTCUBE 1 05 Mar 13:04:15 13:05:58 12° 292° (WNW) 13:07:24 437.505/2401.250
Gurwin Techsat 1B 05 Mar 13:16:49 13:20:30 20° 69° (ENE) 13:24:23 435.225
Oscar 19 05 Mar 13:19:38 13:24:47 85° 256° (WSW) 13:29:57 437.125/150
ITAMSAT 1 05 Mar 13:25:26 13:30:02 33° 72° (ENE) 13:34:44 435.822/435.867
SWISSCUBE 05 Mar 13:35:22 13:39:58 45° 99° (E) 13:44:34 437.505
BEESAT 05 Mar 13:43:21 13:48:01 51° 100° (E) 13:52:41 436.000
HORYU 2 05 Mar 14:05:03 14:06:38 12° 68° (ENE) 14:08:28 437.375
ITUPSAT 1 05 Mar 14:12:38 14:17:28 76° 283° (WNW) 14:22:16 437.325
AO-7 05 Mar 14:14:08 14:19:42 21° 60° (ENE) 14:25:38 29.400- 29.500
YUBILEINY 05 Mar 14:30:29 14:34:32 15° 82° (E) 14:39:18 435.215
STARS 05 Mar 14:40:44 14:44:07 22° 95° (E) 14:47:35 437.465
KKS-1 05 Mar 14:41:09 14:45:15 37° 98° (E) 14:49:21 437.445
VERMONT LUNAR 05 Mar 14:49:42 14:52:31 24° 144° (SE) 14:55:23 437.305
Gurwin Techsat 1B 05 Mar 14:55:14 15:00:14 41° 262° (W) 15:05:13 435.225
JAS-2 05 Mar 14:57:04 15:00:16 16° 64° (ENE) 15:03:56 435.910
ISS 05 Mar 14:59:40 15:02:39 36° 40° (NE) 15:05:40 145.825
ITAMSAT 1 05 Mar 15:05:27 15:09:36 23° 265° (W) 15:13:38 435.822/435.867
SWISSCUBE 05 Mar 15:14:39 15:17:30 15° 292° (WNW) 15:20:08 437.505
BEESAT 3 05 Mar 15:15:11 15:16:20 11° 109° (ESE) 15:17:45 437.485
PHONESAT 2.4 05 Mar 15:16:44 15:19:14 18° 142° (SE) 15:21:48 2401.200-2431.200
BEESAT 05 Mar 15:23:02 15:25:30 14° 292° (WNW) 15:27:42 436.000
HORYU 2 05 Mar 15:38:39 15:42:56 48° 260° (W) 15:47:14 437.375
BEESAT 2 05 Mar 15:42:19 15:45:24 21° 111° (ESE) 15:48:36 435.950
AIST 2 05 Mar 15:59:49 16:00:55 11° 109° (ESE) 16:02:17 435.215
AO-7 05 Mar 16:03:28 16:11:49 75° 255° (WSW) 16:20:10 29.400- 29.500
AUBIESAT-1 05 Mar 16:04:37 16:07:02 15° 98° (E) 16:09:44 437.475
M-CUBED/EXP-1 PRIME 05 Mar 16:05:02 16:07:53 17° 99° (E) 16:11:01 437.505
MOZHAYETS 4 05 Mar 16:16:12 16:19:23 19° 93° (E) 16:22:43
STARS 05 Mar 16:16:58 16:20:33 24° 288° (WNW) 16:24:02 437.465
KKS-1 05 Mar 16:18:56 16:21:38 16° 291° (WNW) 16:24:08 437.445
YUBILEINY 05 Mar 16:21:43 16:30:28 84° 277° (W) 16:39:18 435.215
VERMONT LUNAR 05 Mar 16:26:51 16:30:15 52° 336° (NNW) 16:33:41 437.305
ISS 05 Mar 16:37:04 16:38:49 14° 232° (SW) 16:40:27 145.825
JAS-2 05 Mar 16:39:28 16:44:47 56° 261° (W) 16:50:42 435.910
BEESAT 3 05 Mar 16:50:08 16:54:04 45° 301° (WNW) 16:58:02 437.485
PHONESAT 2.4 05 Mar 16:53:49 16:57:26 70° 334° (NNW) 17:01:04 2401.200-2431.200
Cubesat XI-IV 05 Mar 17:17:23 17:21:56 30° 71° (ENE) 17:26:36 437.490
BEESAT 2 05 Mar 17:19:59 17:23:27 25° 305° (NW) 17:26:55 435.950
CUTE-I 05 Mar 17:25:06 17:29:54 35° 72° (ENE) 17:34:47 437.470
AIST 2 05 Mar 17:35:02 17:39:08 49° 301° (WNW) 17:43:19 435.215
AUBIESAT-1 05 Mar 17:37:45 17:42:00 45° 289° (WNW) 17:46:28 437.475
M-CUBED/EXP-1 PRIME 05 Mar 17:38:42 17:42:52 39° 290° (WNW) 17:47:13 437.505
PRISM 05 Mar 17:47:43 17:47:45 10° 91° (E) 17:48:05 437.425
AIST 1 05 Mar 17:48:11 17:52:02 30° 78° (ENE) 17:55:55
MOZHAYETS 4 05 Mar 17:52:32 17:56:42 32° 287° (WNW) 18:00:48
VERMONT LUNAR 05 Mar 18:05:53 18:08:37 21° 353° (N) 18:11:20 437.305
O/OREOS (USA 219) 05 Mar 18:08:34 18:11:25 17° 60° (ENE) 18:14:26 437.305
STRAND 1 05 Mar 18:13:00 18:15:35 14° 92° (E) 18:18:28 437.568
CUBESAT XI-V 05 Mar 18:23:43 18:27:57 33° 97° (E) 18:32:11 437.345
YUBILEINY 05 Mar 18:24:52 18:28:52 13° 296° (WNW) 18:32:08 435.215
PHONESAT 2.4 05 Mar 18:33:15 18:36:16 24° 350° (N) 18:39:17 2401.200-2431.200
Cubesat XI-IV 05 Mar 18:57:28 19:02:01 27° 264° (W) 19:06:30 437.490
PCSat 05 Mar 18:59:26 19:03:31 23° 107° (ESE) 19:07:47 145.827
CUTE-I 05 Mar 19:05:48 19:10:04 23° 265° (W) 19:14:11 437.470
PRISM 05 Mar 19:19:29 19:23:35 48° 286° (WNW) 19:27:38 437.425
AIST 1 05 Mar 19:26:40 19:29:29 16° 271° (W) 19:32:06
HO-68 05 Mar 19:33:57 19:40:00 32° 67° (ENE) 19:46:13 435.675
SEEDS 05 Mar 19:40:33 19:42:28 13° 70° (ENE) 19:44:38 437.485
VERMONT LUNAR 05 Mar 19:44:23 19:47:13 23° 10° (N) 19:50:03 437.305
O/OREOS (USA 219) 05 Mar 19:46:48 19:51:02 37° 256° (WSW) 19:55:11 437.305
GOMX 1 05 Mar 19:47:52 19:52:23 29° 73° (ENE) 19:56:49 467.674
CANX-2 05 Mar 19:47:53 19:51:07 22° 72° (ENE) 19:54:27 2200.000
STRAND 1 05 Mar 19:50:09 19:55:08 51° 286° (WNW) 20:00:04 437.568
BRITE-PL 05 Mar 19:59:21 20:04:54 59° 76° (ENE) 20:10:14 437.365/2234.400
CUBESAT XI-V 05 Mar 20:01:48 20:05:11 19° 290° (WNW) 20:08:23 437.345
CUTE 1.7 + AOD 2 05 Mar 20:05:24 20:09:09 33° 74° (ENE) 20:12:57 437.475
DOVE 4 05 Mar 20:06:38 20:11:01 30° 74° (ENE) 20:15:19 437.250
PHONESAT 2.4 05 Mar 20:12:30 20:15:26 22° 7° (N) 20:18:21 2401.200-2431.200
AAUSAT CUBESAT 2 05 Mar 20:36:06 20:40:02 45° 75° (ENE) 20:44:01 437.432
GONETS M04 05 Mar 20:37:15 20:43:37 25° 86° (E) 20:50:23
UWE-3 05 Mar 20:41:06 20:43:21 14° 71° (ENE) 20:45:46 435.000/436.395/437.385
COMPASS 1 05 Mar 20:41:17 20:45:22 64° 77° (ENE) 20:49:29 437.405
PCSat 05 Mar 20:41:44 20:46:44 37° 301° (WNW) 20:51:44 145.827
Oscar 11 05 Mar 20:54:00 20:57:51 34° 74° (ENE) 21:01:46 145.826/435.025
SEEDS 05 Mar 21:14:07 21:18:01 37° 262° (W) 21:21:54 437.485
HO-68 05 Mar 21:20:57 21:27:36 40° 261° (W) 21:34:11 435.675
VERMONT LUNAR 05 Mar 21:22:00 21:25:28 70° 25° (NNE) 21:28:56 437.305
DELFI C3 05 Mar 21:23:03 21:27:00 60° 77° (ENE) 21:31:00 145.870
CUBEBUG 2 05 Mar 21:23:38 21:28:04 58° 76° (ENE) 21:32:22 437.445
CANX-2 05 Mar 21:23:40 21:27:00 22° 265° (W) 21:30:15 2200.000
DX 1 05 Mar 21:24:08 21:28:08 36° 73° (ENE) 21:32:11 434.975-435.025
HUMSAT D 05 Mar 21:25:17 21:28:05 18° 72° (ENE) 21:30:59 437.325/437.525
GOMX 1 05 Mar 21:25:51 21:30:27 27° 264° (W) 21:34:47 467.674
CINEMA 3 05 Mar 21:26:00 21:30:48 69° 260° (W) 21:35:23 145.822/145.860
BRITE-PL 05 Mar 21:40:33 21:43:44 15° 269° (W) 21:46:31 437.365/2234.400
CUTE 1.7 + AOD 2 05 Mar 21:42:44 21:45:13 15° 267° (W) 21:47:31 437.475
AISAT 05 Mar 21:43:59 21:47:32 24° 72° (ENE) 21:51:11 437.250
DOVE 4 05 Mar 21:44:34 21:48:46 24° 265° (W) 21:52:42 437.250
FUNcube-1 05 Mar 21:45:31 21:49:51 68° 77° (ENE) 21:54:06 145.935
ZACube-1 05 Mar 21:48:02 21:52:25 75° 76° (ENE) 21:56:43 437.345
UKube-1 05 Mar 21:48:50 21:53:09 70° 76° (ENE) 21:57:30 .
PHONESAT 2.4 05 Mar 21:50:46 21:54:20 56° 23° (NNE) 21:57:54 2401.200-2431.200
VELOX 1 05 Mar 21:51:33 21:55:19 28° 72° (ENE) 21:59:12 145.980
RS-15 05 Mar 22:10:49 22:21:09 52° 111° (ESE) 22:31:38 29.354- 29.394
UWE-3 05 Mar 22:15:27 22:19:39 39° 262° (W) 22:23:42 435.000/436.395/437.385
AAUSAT CUBESAT 2 05 Mar 22:15:29 22:16:00 10° 270° (W) 22:16:13 437.432
QB50P2 05 Mar 22:17:25 22:17:53 10° 91° (E) 22:18:40 145.880/145.840
50 SAT 05 Mar 22:19:18 22:23:12 58° 77° (ENE) 22:27:06 437.505
ESTCUBE 1 05 Mar 22:20:25 22:24:12 27° 72° (ENE) 22:28:05 437.505/2401.250
DUCHIFAT 1 05 Mar 22:27:48 22:29:56 14° 92° (E) 22:32:17 145.980
GONETS M04 05 Mar 22:31:29 22:39:59 57° 280° (W) 22:48:28
Oscar 11 05 Mar 22:31:34 22:34:11 15° 267° (W) 22:36:36 145.826/435.025
UNISAT 6 05 Mar 22:32:11 22:36:07 34° 98° (E) 22:40:09 437.425
POPSAT HIP 1 05 Mar 22:49:43 22:53:18 27° 97° (E) 22:56:55 437.405
POLYITAN 1 05 Mar 22:50:58 22:54:37 29° 97° (E) 22:58:19 437.675
